GW1062 Weather Reports


Display with metric or nautical units.
time (UTC)temp
F
wind
direction
speed
MPH
gust
MPH
rain 1hr
in
rain 24hr
in
rain mn
in
humidity
%
barometer
mb
20260904094540 71 2 0.0 0.0 0.00 0.12 0.00 94 973.0
20260904093054 72 2 0.0 0.0 0.00 0.12 0.00 94 973.0
20260904091537 72 2 0.0 1.0 0.00 0.12 0.00 93 972.9
20260904090040 72 2 0.0 2.0 0.00 0.12 0.00 94 972.8
20260904084536 72 2 0.0 3.0 0.00 0.12 0.00 94 972.8
20260904083036 72 2 1.0 3.0 0.00 0.12 0.00 94 972.7
20260904081538 73 2 1.0 3.0 0.00 0.12 0.00 93 972.8
20260904080033 73 2 0.0 4.0 0.00 0.12 0.00 94 972.8
20260904074538 72 2 1.0 5.0 0.00 0.12 0.00 95 972.9
20260904073032 72 2 1.0 4.0 0.00 0.12 0.00 94 972.9
20260904071530 72 2 1.0 4.0 0.00 0.12 0.00 94 972.9
20260904070042 73 1 1.0 5.0 0.00 0.12 0.00 94 973.0
20260904064536 73 2 1.0 4.0 0.00 0.12 0.00 93 973.0
20260904063027 73 2 0.0 3.0 0.00 0.12 0.00 94 973.1
20260904061528 73 1 1.0 4.0 0.00 0.12 0.00 94 973.0
20260904060025 73 2 1.0 3.0 0.00 0.12 0.00 94 973.0
20260904054530 73 2 1.0 4.0 0.00 0.12 0.00 93 973.0
20260904053021 74 2 0.0 3.0 0.00 0.12 0.00 93 973.0
20260904051520 74 2 1.0 5.0 0.00 0.12 0.00 93 973.0
20260904050020 74 2 0.0 3.0 0.00 0.12 0.00 93 972.9
20260904044524 74 2 2.0 4.0 0.00 0.12 0.12 93 972.9
20260904043017 75 2 1.0 4.0 0.00 0.12 0.12 92 973.0
20260904041514 75 1 2.0 3.0 0.00 0.12 0.12 92 973.0
20260904040015 75 2 1.0 4.0 0.00 0.12 0.12 92 972.9
20260904034531 75 2 1.0 4.0 0.00 0.12 0.12 92 972.9
20260904033013 76 2 1.0 4.0 0.00 0.12 0.12 90 973.0
20260904031515 77 2 1.0 4.0 0.00 0.12 0.12 90 972.9
20260904030012 77 1 1.0 4.0 0.00 0.12 0.12 90 972.9
20260904024512 77 2 1.0 5.0 0.00 0.12 0.12 89 972.6
20260904023011 77 1 1.0 5.0 0.00 0.12 0.12 90 972.6
20260904021510 78 1 2.0 4.0 0.00 0.12 0.12 89 972.6
20260904020010 79 2 2.0 5.0 0.00 0.12 0.12 87 972.4
20260904014509 79 2 2.0 5.0 0.00 0.12 0.12 86 972.3
20260904013009 81 3 2.0 7.0 0.00 0.12 0.12 85 972.0
20260904011615 80 2 2.0 6.0 0.00 0.12 0.12 87 971.9
20260904010008 80 2 1.0 4.0 0.00 0.12 0.12 87 971.8
20260904004507 81 2 2.0 5.0 0.00 0.12 0.12 86 971.6
20260904003007 82 1 1.0 5.0 0.00 0.12 0.12 85 971.4
20260904001507 83 2 2.0 8.0 0.00 0.12 0.12 82 971.5
20260904000007 84 2 2.0 9.0 0.00 0.12 0.12 81 971.5
20260903234504 85 2 2.0 9.0 0.00 0.12 0.12 80 971.5
20260903233011 86 1 5.0 12.0 0.00 0.12 0.12 78 971.3
20260903231503 86 2 6.0 13.0 0.00 0.12 0.12 78 971.4
20260903230003 86 2 6.0 12.0 0.00 0.12 0.12 80 971.3
20260903224503 86 2 6.0 13.0 0.00 0.12 0.12 79 971.3
20260903223001 86 2 6.0 17.0 0.00 0.12 0.12 78 971.3
20260903221602 86 2 6.0 15.0 0.00 0.12 0.12 79 971.1
20260903220112 86 2 5.0 15.0 0.00 0.12 0.12 82 971.4
20260903214557 85 1 9.0 14.0 0.00 0.12 0.12 80 971.3
20260903213059 85 2 8.0 15.0 0.00 0.12 0.12 80 971.7
20260903211554 84 1 8.0 12.0 0.00 0.12 0.12 80 972.0
20260903210052 83 1 7.0 11.0 0.00 0.12 0.12 81 972.1
20260903204545 83 1 7.0 11.0 0.00 0.13 0.12 81 972.3
20260903203104 82 10 4.0 11.0 0.00 0.13 0.12 80 972.4
20260903201539 82 1 5.0 11.0 0.00 0.13 0.12 87 972.9
20260903200034 80 1 3.0 7.0 0.11 0.13 0.12 90 973.5
20260903194536 78 1 3.0 7.0 0.12 0.15 0.12 95 973.7
20260903193037 76 1 6.0 9.0 0.12 0.15 0.12 94 974.1
20260903191532 76 1 1.0 5.0 0.12 0.15 0.12 93 973.9
20260903190031 78 4 0.0 2.0 0.00 0.03 0.00 93 974.8
20260903184534 78 7 0.0 0.0 0.00 0.03 0.00 93 974.7
20260903183036 79 10 0.0 0.0 0.00 0.03 0.00 92 974.6
20260903181530 79 6 0.0 4.0 0.00 0.03 0.00 90 975.3
20260903180029 80 5 0.0 4.0 0.00 0.03 0.00 89 975.7
20260903174526 80 1 0.0 2.0 0.00 0.03 0.00 91 974.8
20260903173022 80 10 0.0 4.0 0.00 0.03 0.00 90 974.4
20260903171520 79 10 2.0 5.0 0.00 0.03 0.00 89 974.5
20260903170018 79 8 0.0 4.0 0.00 0.03 0.00 90 974.6
20260903164515 78 9 0.0 0.0 0.00 0.03 0.00 91 974.7
20260903163015 78 10 1.0 3.0 0.00 0.03 0.00 91 974.5
20260903161513 78 9 0.0 2.0 0.00 0.03 0.00 90 974.7
20260903160014 77 9 0.0 1.0 0.00 0.03 0.00 90 974.9
20260903154510 77 9 0.0 1.0 0.00 0.03 0.00 90 974.8
20260903153009 76 9 1.0 5.0 0.00 0.03 0.00 89 974.6
20260903151509 76 10 1.0 3.0 0.00 0.03 0.00 90 974.8
20260903150015 76 9 0.0 3.0 0.00 0.03 0.00 89 974.8
20260903144532 76 10 1.0 6.0 0.00 0.03 0.00 89 974.9
20260903143007 76 10 1.0 5.0 0.00 0.03 0.00 89 974.7
20260903141507 75 10 2.0 7.0 0.00 0.03 0.00 89 974.5
20260903140007 75 10 2.0 7.0 0.00 0.03 0.00 90 974.6
20260903134505 75 10 4.0 8.0 0.00 0.03 0.00 87 974.7
20260903133008 77 9 1.0 7.0 0.00 0.03 0.00 88 974.9
20260903131502 76 9 0.0 4.0 0.00 0.03 0.00 91 975.0
20260903130059 75 8 0.0 2.0 0.00 0.03 0.00 91 974.8
20260903124606 74 1 0.0 2.0 0.00 0.03 0.00 94 974.7
20260903123052 73 8 0.0 2.0 0.00 0.03 0.00 94 974.7
20260903121554 72 8 0.0 1.0 0.00 0.03 0.00 94 974.6
20260903120059 72 8 0.0 2.0 0.00 0.03 0.00 93 974.5
20260903114550 73 8 0.0 0.0 0.00 0.03 0.00 92 974.7
20260903113129 73 7 0.0 3.0 0.00 0.03 0.00 93 974.7
20260903111549 73 8 0.0 4.0 0.00 0.03 0.00 93 974.5
20260903110051 72 6 3.0 9.0 0.00 0.03 0.00 94 974.6
20260903104557 72 7 0.0 0.0 0.00 0.03 0.00 93 973.7
20260903103045 72 7 0.0 2.0 0.00 0.03 0.00 94 973.5
20260903101542 72 7 0.0 1.0 0.00 0.03 0.00 93 973.1
20260903100044 73 7 0.0 0.0 0.00 0.03 0.00 92 973.0